Boulder City, NV

4:00 PM PST on November 14, 2019 (GMT -0800)
Boulder City

Weather History for KBVU - September, 2019

Change the Weather History Date:

Tuesday, September 10, 2019

  Actual Average (WUND) Record (WUND)
Temperature  
Mean Temperature 82 °F -  
Max Temperature 91 °F - - (-1)
Min Temperature 73 °F - - (-1)
Cooling Degree Days 17    
Growing Degree Days 32 (Base 50)    
Moisture  
Dew Point 48 °F    
Average Humidity 31    
Maximum Humidity 47    
Minimum Humidity 16    
Precipitation  
Precipitation 0.00 in - - ()
Sea Level Pressure  
Sea Level Pressure 29.76 in    
Wind  
Wind Speed 15 mph ()    
Max Wind Speed 32 mph    
Max Gust Speed 37 mph    
Visibility 10.0 miles    
Events      
Averages and records for this station are not official NWS values.
T = Trace of Precipitation, MM = Missing Value Source: Averaged Metar Reports

Daily Weather History Graph

Daily Weather History Graph

Search for Another Location

Airport or City:

Astronomy

Sep. 10, 2019 Rise Set
Actual Time 6:18 AM PDT 6:54 PM PDT
Civil Twilight 5:52 AM PDT 7:19 PM PDT
Nautical Twilight 5:21 AM PDT 7:50 PM PDT
Astronomical Twilight 4:50 AM PDT 8:21 PM PDT
Moon 5:25 PM PDT (9/10) 2:56 AM PDT (9/10)
Length of Visible Light 13h 27m
Length of Day
12h 36m
Waxing Gibbous, 90% of the Moon is Illuminated
Sep 10
Waxing Gibbous
Sep 13
Full
Sep 21
Last Quarter
Sep 28
New
Oct 5
First Quarter

Hourly Weather History & Observations

Time (PDT) Temp. Heat Index Dew Point Humidity Pressure Visibility Wind Dir Wind Speed Gust Speed Precip Events Conditions
12:15 AM 82.4 °F - 46.4 °F 28% 29.74 in 10.0 mi South 12.7 mph 19.6 mph N/A   Partly Cloudy
12:35 AM 82.4 °F - 48.2 °F 30% 29.74 in 10.0 mi SSW 15.0 mph - N/A   Partly Cloudy
12:55 AM 80.6 °F - 50.0 °F 34% 29.74 in 10.0 mi SSW 15.0 mph 21.9 mph N/A   Partly Cloudy
1:15 AM 80.6 °F - 50.0 °F 34% 29.74 in 10.0 mi SSW 16.1 mph - N/A   Scattered Clouds
1:55 AM 78.8 °F - 51.8 °F 39% 29.75 in 10.0 mi South 11.5 mph 18.4 mph N/A   Scattered Clouds
2:15 AM 78.8 °F - 53.6 °F 42% 29.75 in 10.0 mi South 13.8 mph - N/A   Mostly Cloudy
2:35 AM 78.8 °F - 53.6 °F 42% 29.75 in 10.0 mi South 13.8 mph - N/A   Mostly Cloudy
2:55 AM 78.8 °F - 53.6 °F 42% 29.75 in 10.0 mi South 13.8 mph 23.0 mph N/A   Scattered Clouds
3:15 AM 78.8 °F - 53.6 °F 42% 29.75 in 10.0 mi South 16.1 mph - N/A   Scattered Clouds
3:35 AM 78.8 °F - 53.6 °F 42% 29.75 in 10.0 mi South 16.1 mph 24.2 mph N/A   Mostly Cloudy
3:55 AM 78.8 °F - 53.6 °F 42% 29.75 in 10.0 mi South 16.1 mph - N/A   Mostly Cloudy
4:15 AM 77.0 °F - 53.6 °F 44% 29.75 in 10.0 mi South 13.8 mph - N/A   Scattered Clouds
4:35 AM 77.0 °F - 53.6 °F 44% 29.75 in 10.0 mi South 11.5 mph 19.6 mph N/A   Scattered Clouds
4:55 AM 75.2 °F - 53.6 °F 47% 29.76 in 10.0 mi SSE 6.9 mph - N/A   Mostly Cloudy
5:15 AM 77.0 °F - 51.8 °F 41% 29.76 in 10.0 mi SSE 9.2 mph - N/A   Overcast
5:35 AM 75.2 °F - 51.8 °F 44% 29.77 in 10.0 mi South 6.9 mph - N/A   Overcast
5:55 AM 73.4 °F - 51.8 °F 47% 29.77 in 10.0 mi South 6.9 mph - N/A   Mostly Cloudy
6:15 AM 75.2 °F - 48.2 °F 38% 29.78 in 10.0 mi South 9.2 mph 16.1 mph N/A   Scattered Clouds
6:35 AM 75.2 °F - 48.2 °F 38% 29.79 in 10.0 mi South 9.2 mph 15.0 mph N/A   Clear
6:55 AM 75.2 °F - 48.2 °F 38% 29.80 in 10.0 mi SSW 10.4 mph - N/A   Clear
7:15 AM 75.2 °F - 46.4 °F 36% 29.81 in 10.0 mi SSW 5.8 mph - N/A   Clear
7:35 AM 77.0 °F - 46.4 °F 34% 29.81 in 10.0 mi SSE 11.5 mph - N/A   Clear
7:55 AM 78.8 °F - 48.2 °F 34% 29.81 in 10.0 mi SSE 16.1 mph - N/A   Clear
8:15 AM 78.8 °F - 48.2 °F 34% 29.82 in 10.0 mi SSE 18.4 mph - N/A   Clear
8:35 AM 78.8 °F - 50.0 °F 36% 29.82 in 10.0 mi SSE 18.4 mph 25.3 mph N/A   Clear
8:55 AM 78.8 °F - 51.8 °F 39% 29.83 in 10.0 mi SSE 19.6 mph - N/A   Clear
9:15 AM 80.6 °F 80.3 °F 53.6 °F 39% 29.83 in 10.0 mi SSE 18.4 mph 26.5 mph N/A   Clear
9:35 AM 80.6 °F 80.3 °F 53.6 °F 39% 29.83 in 10.0 mi South 16.1 mph 27.6 mph N/A   Clear
9:55 AM 80.6 °F 80.5 °F 55.4 °F 42% 29.82 in 10.0 mi SSE 25.3 mph 31.1 mph N/A   Clear
10:15 AM 82.4 °F 81.7 °F 55.4 °F 39% 29.82 in 10.0 mi SSE 20.7 mph 31.1 mph N/A   Clear
10:35 AM 84.2 °F 83.0 °F 55.4 °F 37% 29.81 in 10.0 mi SSE 28.8 mph 35.7 mph N/A   Clear
10:55 AM 84.2 °F 83.0 °F 55.4 °F 37% 29.81 in 10.0 mi SSE 24.2 mph 32.2 mph N/A   Clear
11:15 AM 84.2 °F 83.0 °F 55.4 °F 37% 29.81 in 10.0 mi SSE 28.8 mph 35.7 mph N/A   Clear
11:35 AM 86.0 °F 84.5 °F 55.4 °F 35% 29.81 in 10.0 mi SSE 27.6 mph 35.7 mph N/A   Clear
11:55 AM 86.0 °F 84.5 °F 55.4 °F 35% 29.81 in 10.0 mi SSE 24.2 mph 32.2 mph N/A   Clear
12:15 PM 87.8 °F 86.1 °F 55.4 °F 33% 29.80 in 10.0 mi South 21.9 mph 32.2 mph N/A   Clear
12:55 PM 89.6 °F - 50.0 °F 26% 29.78 in 9.0 mi South 32.2 mph - N/A   Clear
1:35 PM 89.6 °F - 48.2 °F 24% 29.76 in 10.0 mi South 27.6 mph 35.7 mph N/A   Clear
1:55 PM 91.4 °F - 46.4 °F 21% 29.75 in 10.0 mi South 25.3 mph 36.8 mph N/A   Clear
2:15 PM 91.4 °F - 46.4 °F 21% 29.74 in 10.0 mi South 25.3 mph 33.4 mph N/A   Clear
2:35 PM 91.4 °F - 46.4 °F 21% 29.73 in 10.0 mi South 21.9 mph 31.1 mph N/A   Clear
2:55 PM 91.4 °F - 51.8 °F 26% 29.73 in 10.0 mi South 25.3 mph 34.5 mph N/A   Clear
3:15 PM 91.4 °F - 48.2 °F 23% 29.73 in 10.0 mi South 23.0 mph 36.8 mph N/A   Partly Cloudy
3:35 PM 91.4 °F - 48.2 °F 23% 29.72 in 10.0 mi South 26.5 mph 34.5 mph N/A   Partly Cloudy
3:55 PM 89.6 °F - 48.2 °F 24% 29.71 in 10.0 mi South 23.0 mph 32.2 mph N/A   Partly Cloudy
4:15 PM 91.4 °F - 48.2 °F 23% 29.71 in 10.0 mi South 27.6 mph 34.5 mph N/A   Partly Cloudy
4:35 PM 89.6 °F - 48.2 °F 24% 29.71 in 10.0 mi South 24.2 mph 33.4 mph N/A   Scattered Clouds
4:55 PM 89.6 °F - 48.2 °F 24% 29.71 in 10.0 mi South 26.5 mph 36.8 mph N/A   Mostly Cloudy
5:15 PM 89.6 °F - 46.4 °F 22% 29.71 in 10.0 mi South 21.9 mph 32.2 mph N/A   Scattered Clouds
5:35 PM 91.4 °F - 44.6 °F 20% 29.71 in 10.0 mi South 19.6 mph 28.8 mph N/A   Mostly Cloudy
5:55 PM 89.6 °F - 44.6 °F 21% 29.70 in 10.0 mi South 23.0 mph 29.9 mph N/A   Scattered Clouds
6:15 PM 89.6 °F - 41.0 °F 18% 29.70 in 10.0 mi South 25.3 mph - N/A   Partly Cloudy
6:35 PM 87.8 °F - 41.0 °F 19% 29.70 in 10.0 mi South 20.7 mph 29.9 mph N/A   Partly Cloudy
6:55 PM 87.8 °F - 39.2 °F 18% 29.70 in 10.0 mi SSW 17.3 mph 27.6 mph N/A   Clear
7:15 PM 87.8 °F - 39.2 °F 18% 29.70 in 10.0 mi South 19.6 mph 26.5 mph N/A   Clear
7:35 PM 86.0 °F - 41.0 °F 20% 29.71 in 10.0 mi South 17.3 mph 24.2 mph N/A   Scattered Clouds
7:55 PM 86.0 °F - 42.8 °F 22% 29.72 in 10.0 mi South 12.7 mph 25.3 mph N/A   Mostly Cloudy
8:15 PM 84.2 °F - 42.8 °F 23% 29.72 in 10.0 mi South 13.8 mph 20.7 mph N/A   Mostly Cloudy
8:35 PM 84.2 °F - 44.6 °F 25% 29.72 in 10.0 mi South 15.0 mph - N/A   Scattered Clouds
8:55 PM 84.2 °F - 44.6 °F 25% 29.73 in 10.0 mi South 16.1 mph 21.9 mph N/A   Clear
9:15 PM 84.2 °F - 42.8 °F 23% 29.73 in 10.0 mi South 16.1 mph 24.2 mph N/A   Scattered Clouds
9:35 PM 84.2 °F - 41.0 °F 22% 29.74 in 10.0 mi South 17.3 mph - N/A   Scattered Clouds
9:55 PM 82.4 °F - 37.4 °F 20% 29.75 in 10.0 mi SSW 15.0 mph 21.9 mph N/A   Partly Cloudy
10:15 PM 82.4 °F - 32.0 °F 16% 29.75 in 10.0 mi SSW 13.8 mph 23.0 mph N/A   Scattered Clouds
10:35 PM 80.6 °F - 33.8 °F 18% 29.76 in 10.0 mi SSW 12.7 mph 18.4 mph N/A   Scattered Clouds
10:55 PM 78.8 °F - 33.8 °F 20% 29.76 in 10.0 mi SW 13.8 mph - N/A   Scattered Clouds
11:15 PM 78.8 °F - 35.6 °F 21% 29.77 in 10.0 mi SW 13.8 mph - N/A   Mostly Cloudy
11:35 PM 77.0 °F - 37.4 °F 24% 29.77 in 10.0 mi SW 17.3 mph - N/A   Mostly Cloudy
11:55 PM 77.0 °F - 39.2 °F 26% 29.77 in 10.0 mi SW 21.9 mph - N/A   Mostly Cloudy